GFSSW_500_temp_159.txt.gz
Temp
-7 -7 -7 -7 -7 -7 -7 -7 -7 -7 -7 -6 -6 -6 -7 -7 -7 -8 -8 -8 -8 -8 -8 -9 -9 -9 -9 -8 -8 -9 -8 -7 -7 -7 -7 -8 -8 -9 -8 -7 -8 -8 -8 -8 -6
-7 -7 -7 -7 -7 -7 -7 -7 -7 -7 -6 -6 -6 -7 -7 -7 -8 -8 -9 -9 -9 -9 -10 -10 -10 -10 -10 -10 -10 -10 -9 -8 -8 -9 -8 -8 -9 -10 -8 -7 -7 -8 -8 -9 -8
-7 -7 -7 -7 -7 -7 -7 -7 -7 -7 -7 -7 -7 -7 -8 -8 -8 -9 -9 -9 -9 -10 -10 -11 -11 -11 -11 -11 -11 -11 -10 -10 -9 -10 -9 -9 -8 -8 -8 -8 -7 -8 -8 -8 -9
-8 -7 -7 -7 -7 -7 -7 -7 -7 -7 -7 -7 -8 -8 -9 -10 -10 -11 -11 -12 -12 -12 -12 -13 -13 -13 -13 -13 -12 -12 -11 -10 -11 -11 -10 -9 -9 -8 -8 -8 -9 -9 -8 -8 -9
-8 -8 -7 -8 -8 -7 -7 -7 -7 -8 -8 -8 -9 -9 -10 -11 -12 -13 -13 -14 -15 -16 -16 -16 -16 -16 -15 -15 -15 -13 -12 -12 -12 -12 -11 -11 -8 -8 -9 -8 -9 -9 -8 -7 -8
-8 -8 -8 -8 -7 -7 -7 -7 -8 -8 -9 -9 -10 -10 -11 -13 -12 -14 -16 -17 -17 -17 -17 -17 -18 -18 -18 -18 -17 -16 -15 -13 -13 -12 -12 -11 -10 -10 -8 -8 -8 -9 -8 -7 -8
-8 -8 -8 -8 -8 -7 -8 -8 -8 -9 -9 -10 -10 -11 -12 -14 -15 -16 -17 -17 -17 -18 -18 -18 -18 -18 -18 -18 -18 -18 -17 -16 -14 -13 -12 -12 -12 -8 -9 -10 -9 -8 -8 -8 -8
-8 -8 -8 -8 -8 -8 -8 -8 -9 -9 -10 -10 -11 -12 -14 -15 -17 -17 -17 -17 -18 -18 -18 -18 -18 -18 -18 -18 -18 -18 -18 -18 -16 -16 -14 -14 -10 -8 -11 -11 -9 -9 -9 -8 -8
-9 -9 -8 -8 -8 -8 -8 -9 -9 -10 -10 -11 -12 -14 -15 -17 -18 -18 -18 -18 -18 -17 -17 -17 -18 -18 -18 -18 -18 -19 -19 -20 -19 -19 -19 -16 -10 -11 -12 -12 -11 -9 -9 -9 -9
-9 -9 -9 -9 -8 -9 -9 -9 -10 -10 -11 -12 -13 -16 -16 -18 -18 -18 -18 -18 -18 -18 -17 -17 -18 -18 -18 -18 -19 -20 -19 -19 -19 -19 -20 -17 -12 -14 -13 -12 -11 -10 -10 -10 -9
-10 -10 -9 -9 -9 -9 -9 -10 -10 -10 -10 -12 -15 -17 -18 -18 -18 -18 -19 -18 -18 -17 -18 -18 -18 -18 -20 -21 -21 -20 -20 -20 -20 -20 -20 -20 -19 -17 -13 -13 -12 -11 -10 -9 -9
-10 -10 -10 -9 -9 -10 -10 -10 -10 -11 -12 -14 -16 -17 -18 -18 -19 -19 -19 -18 -18 -18 -19 -19 -19 -18 -19 -19 -19 -21 -21 -21 -20 -20 -21 -20 -20 -19 -18 -13 -13 -11 -10 -10 -10
-10 -10 -10 -10 -10 -10 -10 -11 -11 -12 -13 -14 -17 -18 -18 -18 -19 -19 -18 -18 -18 -18 -19 -18 -19 -20 -19 -19 -19 -19 -19 -20 -20 -21 -20 -21 -21 -20 -19 -15 -13 -13 -11 -10 -10
-11 -11 -10 -10 -10 -10 -11 -11 -12 -13 -14 -16 -17 -17 -17 -18 -18 -17 -17 -17 -18 -18 -18 -18 -19 -18 -19 -19 -19 -18 -19 -19 -19 -21 -21 -20 -20 -20 -18 -18 -14 -12 -11 -10 -10
-11 -11 -11 -11 -11 -11 -11 -12 -12 -14 -14 -16 -18 -18 -18 -18 -17 -16 -16 -17 -17 -18 -18 -18 -18 -18 -18 -19 -19 -18 -19 -19 -19 -21 -21 -21 -21 -20 -19 -18 -16 -12 -10 -10 -10
-11 -12 -12 -11 -11 -11 -11 -12 -13 -13 -17 -17 -17 -18 -18 -18 -17 -17 -17 -17 -17 -17 -18 -17 -18 -18 -18 -18 -19 -19 -19 -19 -20 -21 -21 -21 -21 -20 -19 -19 -13 -11 -11 -11 -11
-12 -12 -12 -12 -12 -11 -12 -12 -12 -16 -17 -17 -18 -18 -18 -18 -18 -17 -17 -17 -17 -17 -17 -18 -18 -18 -18 -19 -19 -19 -19 -19 -20 -20 -19 -21 -21 -20 -19 -18 -15 -12 -12 -11 -12
-12 -12 -12 -12 -12 -12 -12 -12 -14 -16 -17 -17 -17 -18 -17 -17 -17 -17 -17 -17 -17 -18 -18 -18 -18 -19 -19 -19 -19 -19 -20 -19 -20 -19 -19 -20 -20 -20 -18 -18 -17 -16 -13 -12 -13
-12 -13 -13 -12 -12 -12 -12 -13 -14 -16 -17 -17 -17 -17 -18 -18 -17 -17 -17 -17 -17 -17 -17 -17 -18 -18 -19 -19 -19 -19 -19 -20 -20 -19 -20 -20 -20 -20 -19 -18 -18 -17 -16 -14 -13
-12 -13 -13 -12 -12 -13 -12 -13 -14 -16 -17 -17 -17 -17 -17 -18 -17 -17 -17 -17 -17 -17 -17 -17 -17 -18 -18 -19 -19 -19 -20 -19 -19 -19 -20 -20 -19 -19 -19 -19 -18 -16 -16 -15 -13
-13 -13 -13 -13 -13 -13 -13 -14 -15 -16 -16 -16 -18 -18 -18 -18 -17 -17 -17 -17 -17 -17 -17 -18 -17 -18 -18 -18 -19 -19 -19 -19 -19 -19 -19 -20 -19 -19 -19 -18 -18 -17 -15 -13 -13
-13 -14 -13 -13 -13 -13 -14 -15 -15 -16 -17 -16 -17 -18 -18 -17 -17 -17 -17 -17 -17 -17 -18 -18 -18 -18 -18 -18 -18 -19 -19 -19 -19 -19 -19 -20 -19 -19 -18 -18 -18 -16 -14 -13 -13
-13 -13 -13 -13 -14 -14 -14 -14 -15 -17 -17 -17 -17 -18 -18 -18 -17 -17 -17 -18 -18 -18 -18 -18 -18 -18 -18 -18 -19 -19 -19 -19 -19 -19 -19 -19 -18 -18 -18 -18 -18 -16 -15 -14 -13
-13 -14 -14 -14 -13 -13 -14 -15 -15 -17 -17 -18 -18 -17 -17 -17 -17 -17 -17 -17 -17 -17 -18 -18 -18 -18 -18 -18 -19 -19 -19 -19 -19 -19 -19 -19 -18 -19 -18 -16 -18 -17 -17 -15 -14
-14 -14 -15 -15 -14 -14 -15 -15 -15 -16 -17 -17 -17 -17 -17 -16 -17 -17 -17 -17 -17 -18 -18 -18 -18 -18 -18 -18 -18 -18 -19 -19 -19 -19 -19 -20 -19 -18 -18 -17 -18 -17 -17 -16 -14
-15 -15 -15 -15 -15 -15 -15 -15 -15 -17 -17 -17 -17 -17 -17 -16 -16 -16 -16 -17 -17 -18 -18 -18 -18 -18 -17 -18 -18 -18 -19 -19 -19 -19 -19 -19 -19 -18 -17 -18 -17 -17 -16 -15 -15
-15 -15 -15 -15 -15 -15 -16 -16 -16 -16 -17 -17 -17 -17 -17 -16 -16 -17 -17 -17 -17 -17 -17 -18 -18 -18 -18 -18 -18 -18 -19 -19 -19 -19 -20 -19 -19 -18 -18 -17 -16 -15 -16 -16 -14

GFSSW_500_temp_162.txt.gz
Temp
-7 -7 -7 -7 -7 -7 -7 -7 -7 -6 -6 -6 -6 -6 -5 -5 -5 -5 -6 -6 -7 -7 -8 -8 -8 -8 -8 -8 -8 -8 -8 -7 -7 -7 -7 -8 -9 -9 -10 -10 -9 -10 -8 -10 -9
-7 -7 -7 -7 -7 -7 -7 -7 -6 -6 -6 -6 -6 -5 -5 -5 -5 -5 -7 -7 -7 -7 -8 -9 -9 -9 -9 -9 -9 -9 -9 -8 -8 -8 -8 -8 -8 -9 -11 -11 -11 -11 -9 -10 -9
-7 -7 -7 -7 -7 -7 -7 -7 -6 -6 -6 -6 -5 -5 -5 -5 -5 -6 -7 -7 -8 -8 -9 -9 -10 -10 -11 -11 -11 -11 -10 -10 -9 -10 -10 -9 -8 -10 -11 -11 -11 -10 -8 -9 -9
-8 -7 -7 -7 -7 -7 -7 -7 -7 -6 -6 -6 -6 -6 -6 -6 -7 -7 -9 -9 -10 -10 -11 -11 -12 -12 -12 -13 -12 -12 -11 -11 -10 -10 -11 -10 -10 -9 -11 -11 -12 -12 -9 -9 -9
-8 -8 -8 -7 -7 -7 -7 -7 -7 -7 -6 -6 -6 -7 -7 -8 -8 -9 -11 -11 -13 -14 -15 -15 -16 -15 -15 -15 -15 -14 -13 -12 -12 -12 -11 -12 -10 -9 -9 -9 -12 -13 -12 -9 -9
-8 -8 -8 -8 -8 -7 -7 -7 -7 -7 -7 -7 -7 -7 -8 -9 -9 -10 -13 -15 -16 -16 -17 -17 -17 -17 -17 -16 -16 -16 -15 -14 -13 -13 -13 -12 -11 -12 -10 -9 -9 -11 -11 -8 -9
-8 -8 -9 -8 -8 -8 -8 -7 -7 -7 -7 -7 -8 -8 -9 -10 -11 -13 -16 -17 -17 -18 -18 -18 -18 -18 -18 -17 -17 -17 -17 -16 -15 -14 -14 -14 -13 -11 -11 -12 -10 -9 -9 -8 -8
-8 -8 -9 -9 -8 -8 -8 -8 -8 -8 -8 -8 -8 -9 -10 -11 -14 -16 -17 -18 -18 -18 -18 -19 -18 -18 -17 -17 -17 -17 -17 -17 -17 -17 -16 -17 -13 -12 -11 -12 -12 -11 -9 -8 -8
-8 -9 -9 -8 -8 -8 -8 -8 -8 -8 -9 -9 -9 -10 -11 -13 -16 -17 -17 -18 -18 -18 -18 -17 -18 -17 -17 -17 -17 -18 -18 -18 -18 -18 -18 -18 -15 -12 -13 -13 -12 -12 -11 -10 -9
-8 -9 -9 -9 -8 -8 -8 -8 -9 -9 -9 -10 -10 -10 -12 -16 -17 -17 -17 -18 -18 -18 -17 -17 -17 -17 -18 -18 -18 -20 -19 -19 -19 -19 -19 -18 -19 -16 -16 -14 -14 -12 -11 -11 -10
-9 -9 -9 -9 -9 -9 -9 -9 -9 -9 -9 -10 -11 -13 -15 -17 -17 -17 -18 -18 -17 -17 -17 -17 -17 -17 -18 -19 -18 -19 -20 -19 -19 -19 -19 -18 -19 -17 -19 -18 -15 -13 -12 -11 -11
-9 -9 -9 -9 -10 -10 -10 -10 -10 -10 -10 -11 -13 -15 -16 -17 -17 -17 -17 -17 -17 -17 -17 -17 -17 -19 -19 -19 -19 -19 -19 -19 -19 -19 -19 -19 -19 -19 -19 -18 -18 -14 -12 -12 -11
-10 -10 -10 -10 -10 -10 -10 -10 -10 -10 -11 -11 -13 -15 -17 -17 -17 -17 -17 -18 -17 -17 -17 -17 -18 -19 -19 -18 -19 -19 -18 -19 -20 -20 -19 -18 -18 -19 -19 -18 -17 -17 -13 -13 -12
-10 -10 -10 -10 -10 -11 -11 -11 -11 -11 -12 -13 -16 -16 -17 -17 -16 -17 -17 -17 -17 -17 -17 -17 -17 -17 -17 -18 -19 -18 -19 -19 -20 -20 -18 -19 -19 -19 -19 -19 -18 -17 -15 -13 -11
-10 -10 -10 -11 -12 -12 -12 -11 -12 -12 -12 -14 -17 -17 -16 -17 -17 -17 -16 -16 -16 -17 -17 -17 -17 -17 -17 -18 -18 -18 -19 -18 -19 -18 -19 -17 -20 -19 -20 -19 -19 -17 -13 -13 -12
-10 -10 -10 -11 -11 -12 -12 -12 -12 -12 -14 -16 -17 -18 -17 -17 -18 -17 -16 -16 -16 -17 -17 -17 -17 -17 -18 -18 -18 -18 -18 -18 -18 -18 -19 -17 -20 -18 -19 -19 -19 -18 -15 -12 -13
-10 -10 -11 -11 -13 -13 -12 -12 -12 -13 -15 -16 -17 -17 -18 -19 -18 -17 -17 -17 -17 -16 -17 -17 -17 -17 -17 -18 -18 -18 -19 -19 -19 -19 -18 -19 -18 -18 -19 -19 -19 -19 -17 -13 -12
-10 -11 -11 -12 -13 -13 -13 -13 -13 -14 -16 -16 -17 -18 -18 -19 -18 -18 -17 -17 -17 -17 -17 -16 -17 -17 -18 -18 -18 -19 -19 -19 -18 -20 -19 -18 -18 -18 -19 -19 -19 -19 -18 -14 -12
-11 -12 -12 -13 -13 -13 -14 -13 -14 -14 -15 -16 -16 -17 -19 -18 -18 -17 -17 -17 -17 -17 -17 -17 -17 -17 -18 -18 -18 -18 -18 -19 -19 -19 -19 -18 -18 -19 -19 -19 -19 -18 -18 -16 -13
-11 -12 -13 -13 -14 -14 -13 -14 -14 -14 -15 -17 -17 -17 -18 -18 -18 -17 -17 -16 -16 -17 -17 -17 -16 -18 -18 -18 -18 -18 -19 -19 -19 -19 -19 -19 -18 -18 -18 -19 -18 -18 -17 -17 -14
-13 -13 -14 -14 -14 -14 -14 -15 -15 -15 -15 -16 -17 -17 -18 -18 -18 -17 -17 -17 -17 -17 -17 -18 -17 -17 -18 -18 -18 -18 -18 -18 -19 -18 -19 -19 -18 -19 -18 -18 -18 -17 -16 -15 -15
-14 -13 -14 -14 -14 -15 -15 -15 -15 -15 -16 -16 -16 -17 -17 -17 -17 -17 -17 -17 -17 -17 -18 -18 -17 -18 -18 -18 -18 -18 -18 -19 -19 -18 -19 -19 -18 -19 -18 -18 -17 -16 -15 -15 -14
-14 -14 -14 -14 -14 -14 -14 -15 -15 -15 -16 -17 -17 -17 -17 -17 -16 -17 -17 -17 -17 -17 -18 -18 -17 -17 -17 -18 -18 -18 -19 -19 -18 -18 -18 -19 -18 -18 -18 -17 -17 -16 -15 -15 -16
-14 -14 -15 -15 -15 -15 -15 -15 -15 -15 -16 -17 -17 -17 -17 -17 -17 -16 -17 -17 -17 -17 -18 -18 -18 -18 -17 -18 -18 -18 -19 -19 -19 -18 -18 -19 -18 -19 -17 -17 -17 -17 -16 -15 -15
-15 -15 -15 -14 -15 -15 -15 -15 -15 -16 -16 -17 -17 -17 -17 -16 -17 -17 -17 -17 -17 -17 -18 -18 -18 -18 -18 -18 -18 -18 -18 -19 -18 -18 -18 -19 -18 -18 -17 -17 -18 -16 -16 -15 -14
-15 -15 -15 -15 -15 -15 -15 -15 -16 -16 -16 -16 -17 -17 -17 -17 -17 -16 -17 -17 -17 -17 -18 -18 -18 -18 -18 -18 -18 -18 -18 -18 -19 -19 -18 -18 -18 -19 -18 -18 -17 -16 -15 -14 -14
-15 -15 -15 -15 -15 -15 -16 -16 -16 -16 -16 -16 -17 -17 -17 -17 -17 -16 -16 -16 -17 -17 -17 -18 -18 -18 -18 -18 -18 -18 -18 -18 -18 -19 -18 -18 -18 -18 -19 -18 -17 -16 -15 -14 -13

GFSSW_500_temp_165.txt.gz
Temp
-8 -7 -7 -7 -7 -7 -7 -7 -7 -6 -6 -6 -6 -6 -5 -5 -5 -5 -5 -5 -6 -5 -6 -6 -7 -7 -7 -8 -7 -8 -7 -5 -6 -6 -6 -7 -7 -8 -8 -7 -8 -9 -10 -10 -9
-8 -7 -7 -7 -7 -7 -7 -7 -7 -6 -6 -6 -6 -6 -5 -5 -5 -5 -5 -6 -6 -6 -6 -7 -7 -7 -8 -9 -9 -8 -8 -7 -7 -8 -7 -7 -8 -9 -9 -8 -8 -9 -10 -11 -10
-7 -7 -7 -7 -7 -7 -7 -7 -7 -7 -6 -6 -6 -6 -6 -6 -5 -6 -6 -6 -6 -7 -7 -8 -8 -8 -8 -10 -10 -10 -9 -9 -9 -9 -9 -8 -8 -9 -9 -9 -10 -10 -10 -11 -11
-7 -7 -7 -7 -7 -8 -7 -7 -7 -7 -6 -6 -6 -6 -6 -6 -6 -6 -7 -7 -8 -8 -9 -10 -11 -11 -11 -12 -12 -12 -11 -11 -10 -10 -10 -10 -9 -9 -10 -9 -10 -11 -11 -11 -10
-7 -7 -7 -7 -8 -8 -7 -7 -7 -7 -6 -6 -6 -6 -6 -6 -6 -7 -8 -8 -8 -10 -12 -14 -15 -15 -15 -15 -15 -14 -14 -13 -12 -11 -11 -11 -10 -10 -9 -10 -10 -11 -11 -10 -11
-7 -7 -7 -7 -8 -7 -7 -7 -7 -7 -7 -7 -7 -7 -7 -7 -7 -8 -9 -9 -11 -14 -16 -17 -17 -17 -17 -17 -17 -16 -16 -15 -14 -13 -12 -12 -11 -11 -9 -10 -10 -11 -12 -9 -10
-7 -7 -7 -7 -7 -7 -7 -7 -7 -7 -7 -7 -7 -8 -8 -8 -8 -9 -9 -13 -15 -17 -17 -17 -17 -18 -18 -18 -18 -17 -17 -16 -15 -15 -14 -14 -13 -13 -11 -11 -11 -11 -12 -10 -8
-7 -7 -7 -7 -7 -7 -7 -7 -7 -8 -8 -8 -8 -8 -8 -9 -10 -10 -12 -15 -16 -17 -17 -18 -18 -18 -18 -18 -17 -17 -17 -16 -16 -16 -16 -17 -15 -13 -13 -13 -13 -11 -12 -11 -9
-8 -8 -8 -8 -8 -8 -8 -8 -8 -8 -8 -9 -9 -9 -10 -10 -11 -13 -15 -16 -16 -17 -17 -18 -17 -17 -17 -17 -17 -17 -17 -18 -17 -17 -18 -18 -17 -15 -13 -14 -14 -13 -12 -11 -10
-8 -8 -8 -8 -8 -8 -8 -8 -8 -9 -10 -9 -10 -10 -10 -11 -12 -15 -16 -17 -17 -17 -17 -17 -17 -17 -18 -18 -18 -18 -17 -17 -17 -18 -19 -19 -19 -16 -15 -15 -14 -14 -13 -12 -12
-8 -8 -8 -8 -8 -8 -8 -8 -9 -10 -10 -10 -10 -11 -12 -13 -15 -16 -16 -16 -16 -16 -16 -16 -16 -16 -18 -18 -18 -18 -18 -18 -18 -18 -19 -19 -19 -18 -18 -17 -14 -14 -14 -13 -13
-9 -8 -8 -8 -8 -8 -9 -9 -10 -10 -11 -11 -12 -12 -13 -15 -16 -17 -16 -16 -16 -16 -16 -16 -16 -17 -17 -18 -18 -19 -18 -18 -18 -18 -19 -18 -18 -19 -18 -19 -18 -16 -14 -14 -14
-9 -9 -8 -8 -9 -9 -10 -11 -11 -12 -11 -11 -11 -12 -14 -16 -16 -16 -16 -16 -17 -17 -17 -16 -17 -17 -17 -17 -17 -18 -18 -18 -18 -18 -18 -19 -18 -17 -18 -18 -18 -18 -15 -13 -15
-8 -8 -8 -9 -10 -11 -11 -12 -12 -12 -12 -11 -12 -13 -15 -16 -16 -16 -16 -17 -17 -17 -16 -17 -17 -17 -17 -17 -18 -17 -18 -18 -18 -18 -17 -19 -18 -18 -17 -18 -17 -18 -19 -16 -13
-9 -9 -9 -10 -11 -12 -12 -13 -13 -12 -13 -13 -15 -15 -16 -17 -17 -18 -17 -16 -16 -16 -16 -17 -17 -17 -17 -18 -17 -17 -18 -18 -18 -18 -17 -17 -19 -16 -18 -18 -18 -17 -17 -18 -15
-9 -10 -10 -11 -12 -12 -13 -13 -13 -13 -14 -14 -16 -16 -17 -18 -19 -19 -19 -17 -16 -16 -16 -17 -17 -17 -17 -17 -17 -18 -18 -18 -18 -18 -17 -17 -19 -15 -18 -18 -18 -19 -18 -18 -17
-11 -11 -11 -12 -12 -14 -14 -13 -14 -13 -14 -15 -16 -17 -17 -17 -19 -18 -18 -18 -17 -16 -16 -17 -17 -17 -17 -17 -18 -18 -18 -18 -18 -18 -17 -19 -18 -16 -18 -18 -18 -19 -19 -19 -18
-12 -12 -12 -13 -13 -13 -14 -14 -14 -14 -14 -15 -16 -17 -17 -17 -18 -18 -18 -17 -17 -16 -16 -16 -16 -17 -17 -18 -18 -18 -18 -18 -18 -18 -18 -18 -17 -17 -19 -18 -19 -18 -19 -19 -17
-12 -13 -13 -14 -13 -14 -14 -14 -14 -14 -14 -14 -15 -16 -17 -18 -18 -18 -18 -16 -16 -16 -16 -16 -16 -18 -18 -18 -18 -18 -18 -19 -18 -18 -18 -17 -18 -18 -18 -18 -19 -19 -19 -18 -17
-12 -14 -14 -14 -14 -14 -15 -14 -15 -15 -15 -15 -16 -17 -16 -17 -18 -17 -17 -16 -16 -16 -17 -17 -16 -17 -18 -18 -18 -18 -19 -19 -19 -18 -18 -18 -18 -18 -18 -19 -18 -19 -19 -18 -16
-12 -13 -14 -14 -14 -15 -15 -15 -15 -15 -15 -16 -16 -17 -17 -17 -17 -17 -17 -17 -16 -17 -17 -17 -17 -18 -18 -18 -18 -18 -18 -18 -19 -18 -18 -18 -18 -19 -18 -19 -18 -18 -18 -18 -17
-13 -13 -14 -14 -15 -14 -14 -15 -15 -15 -15 -16 -16 -17 -17 -17 -17 -17 -17 -17 -16 -17 -17 -17 -17 -17 -18 -18 -18 -18 -19 -19 -19 -19 -18 -19 -18 -18 -18 -18 -19 -18 -18 -18 -17
-13 -13 -14 -14 -14 -14 -15 -15 -16 -15 -15 -15 -16 -17 -17 -17 -17 -17 -17 -17 -17 -17 -17 -18 -17 -17 -17 -18 -18 -18 -18 -18 -18 -18 -18 -18 -17 -18 -19 -18 -18 -18 -18 -17 -17
-13 -13 -14 -14 -15 -15 -15 -15 -15 -15 -15 -15 -16 -17 -17 -17 -18 -17 -17 -17 -17 -17 -18 -18 -18 -18 -18 -18 -18 -18 -18 -18 -18 -18 -18 -18 -17 -18 -19 -18 -18 -17 -17 -16 -17
-13 -13 -14 -14 -14 -15 -15 -15 -15 -15 -16 -16 -16 -17 -17 -17 -17 -18 -17 -17 -17 -17 -17 -18 -18 -18 -18 -18 -18 -18 -18 -19 -19 -18 -19 -18 -18 -17 -18 -18 -18 -17 -15 -15 -16
-13 -13 -14 -14 -15 -15 -15 -16 -16 -16 -16 -16 -15 -17 -17 -17 -17 -17 -17 -17 -17 -17 -17 -18 -18 -17 -19 -18 -18 -18 -18 -18 -18 -19 -19 -18 -17 -17 -18 -17 -17 -16 -16 -16 -15
-14 -14 -14 -14 -15 -15 -15 -16 -16 -16 -16 -16 -16 -15 -17 -17 -17 -17 -17 -17 -17 -17 -17 -18 -18 -18 -19 -18 -18 -18 -18 -17 -18 -19 -19 -18 -18 -17 -17 -17 -17 -16 -15 -15 -14

GFSSW_500_temp_168.txt.gz
Temp
-7 -7 -7 -7 -7 -7 -7 -7 -7 -7 -7 -6 -6 -6 -6 -6 -6 -6 -6 -6 -6 -6 -6 -6 -6 -7 -7 -8 -8 -7 -6 -6 -5 -5 -5 -7 -7 -7 -6 -6 -7 -8 -9 -10 -9
-7 -7 -7 -7 -7 -7 -7 -7 -7 -7 -7 -6 -6 -6 -6 -6 -6 -6 -6 -6 -6 -6 -6 -7 -7 -7 -7 -8 -7 -7 -7 -7 -7 -6 -6 -7 -8 -8 -7 -6 -7 -8 -9 -10 -8
-7 -7 -7 -7 -7 -7 -7 -8 -7 -7 -7 -6 -6 -6 -6 -6 -6 -7 -6 -6 -6 -7 -7 -7 -7 -7 -8 -8 -8 -8 -7 -8 -8 -8 -7 -7 -8 -9 -7 -7 -8 -8 -9 -9 -9
-7 -7 -7 -7 -7 -7 -7 -7 -7 -7 -6 -6 -6 -6 -6 -7 -7 -7 -7 -7 -7 -7 -7 -8 -8 -8 -8 -10 -11 -10 -10 -9 -9 -8 -8 -7 -8 -8 -8 -8 -8 -8 -9 -9 -8
-7 -7 -7 -7 -7 -7 -7 -7 -7 -7 -7 -7 -7 -7 -7 -7 -7 -7 -7 -7 -7 -8 -9 -9 -9 -10 -12 -14 -14 -14 -13 -13 -12 -12 -10 -9 -8 -7 -8 -9 -10 -9 -9 -9 -8
-7 -7 -7 -7 -7 -7 -7 -7 -7 -7 -7 -7 -7 -7 -7 -8 -8 -8 -8 -8 -9 -9 -9 -11 -13 -15 -16 -17 -17 -17 -16 -15 -15 -14 -14 -13 -12 -9 -8 -9 -11 -10 -10 -9 -9
-7 -7 -7 -7 -7 -7 -7 -7 -7 -7 -7 -7 -7 -7 -8 -9 -9 -9 -10 -10 -10 -11 -13 -15 -16 -16 -17 -17 -17 -17 -17 -17 -16 -16 -16 -15 -13 -12 -10 -12 -11 -11 -11 -11 -10
-7 -7 -7 -7 -7 -7 -7 -7 -7 -7 -7 -8 -8 -9 -10 -10 -10 -10 -11 -11 -12 -15 -16 -16 -16 -16 -16 -16 -17 -17 -17 -16 -17 -18 -17 -17 -15 -14 -13 -12 -12 -11 -11 -11 -10
-8 -8 -7 -7 -7 -7 -7 -7 -7 -8 -8 -9 -10 -10 -10 -11 -11 -11 -11 -12 -15 -16 -16 -16 -16 -16 -16 -16 -16 -17 -16 -16 -16 -17 -17 -18 -17 -15 -14 -13 -12 -11 -11 -12 -12
-8 -8 -8 -8 -7 -7 -7 -8 -9 -9 -11 -11 -11 -11 -11 -11 -11 -12 -13 -15 -15 -16 -16 -16 -16 -16 -16 -16 -16 -17 -17 -17 -17 -18 -18 -17 -16 -16 -16 -15 -13 -13 -11 -12 -12
-8 -8 -7 -7 -7 -7 -8 -9 -10 -11 -12 -12 -12 -12 -12 -13 -12 -13 -15 -16 -16 -16 -16 -16 -16 -16 -17 -16 -17 -17 -17 -17 -18 -18 -18 -17 -18 -16 -16 -16 -15 -14 -12 -12 -13
-8 -8 -8 -7 -8 -8 -9 -10 -11 -12 -12 -12 -12 -12 -13 -12 -13 -15 -16 -16 -16 -16 -16 -16 -16 -16 -16 -16 -16 -17 -17 -17 -18 -18 -19 -18 -18 -17 -17 -17 -17 -15 -14 -12 -13
-8 -8 -8 -8 -8 -9 -10 -11 -12 -13 -13 -12 -13 -13 -13 -13 -15 -17 -17 -17 -16 -16 -16 -16 -16 -16 -16 -16 -16 -16 -17 -17 -17 -18 -19 -18 -17 -17 -17 -18 -18 -17 -15 -14 -13
-8 -8 -8 -9 -9 -11 -11 -12 -13 -13 -13 -13 -13 -13 -13 -13 -14 -17 -17 -18 -17 -16 -16 -16 -16 -16 -16 -16 -17 -16 -17 -17 -17 -17 -17 -19 -17 -17 -17 -17 -18 -18 -17 -14 -13
-9 -9 -9 -10 -11 -11 -13 -14 -14 -13 -14 -14 -14 -14 -14 -15 -16 -17 -18 -18 -18 -17 -17 -17 -16 -16 -16 -17 -17 -16 -17 -17 -17 -17 -17 -17 -17 -15 -18 -18 -17 -18 -18 -16 -15
-10 -10 -10 -11 -12 -13 -14 -14 -13 -14 -14 -15 -15 -16 -16 -17 -17 -17 -18 -19 -18 -16 -16 -16 -16 -16 -16 -17 -17 -17 -17 -17 -17 -18 -17 -17 -18 -15 -17 -18 -17 -18 -18 -17 -16
-11 -11 -11 -12 -13 -14 -14 -14 -14 -14 -15 -15 -15 -16 -16 -16 -17 -17 -18 -19 -17 -16 -17 -17 -17 -17 -17 -17 -18 -18 -18 -17 -17 -17 -17 -17 -18 -15 -18 -18 -17 -17 -17 -17 -17
-11 -11 -12 -12 -13 -14 -14 -14 -14 -14 -14 -15 -15 -16 -16 -16 -17 -17 -18 -17 -17 -17 -17 -16 -17 -18 -18 -18 -18 -19 -18 -18 -18 -17 -18 -18 -16 -16 -18 -18 -18 -17 -17 -17 -17
-12 -12 -12 -13 -13 -14 -14 -14 -14 -14 -15 -15 -15 -15 -17 -18 -18 -18 -18 -17 -17 -17 -16 -16 -16 -18 -18 -18 -18 -18 -18 -18 -18 -18 -18 -17 -17 -17 -18 -18 -18 -18 -18 -17 -17
-12 -12 -12 -12 -13 -14 -14 -15 -15 -15 -15 -15 -15 -15 -15 -16 -17 -18 -17 -18 -17 -17 -17 -16 -16 -17 -18 -18 -18 -18 -18 -18 -18 -18 -18 -17 -17 -17 -18 -18 -18 -18 -18 -17 -18
-12 -12 -13 -13 -13 -13 -14 -15 -15 -15 -15 -15 -15 -16 -15 -16 -17 -17 -18 -18 -17 -17 -17 -17 -17 -17 -18 -18 -18 -18 -18 -19 -19 -19 -18 -17 -17 -18 -19 -19 -19 -18 -18 -18 -19
-13 -13 -13 -13 -13 -13 -14 -14 -15 -15 -16 -15 -16 -16 -16 -16 -17 -18 -18 -18 -17 -17 -17 -18 -17 -17 -18 -18 -18 -18 -19 -19 -19 -18 -19 -18 -17 -18 -18 -19 -19 -18 -19 -19 -19
-13 -13 -13 -13 -13 -13 -14 -15 -15 -15 -15 -15 -16 -16 -17 -17 -17 -17 -17 -17 -17 -17 -17 -17 -17 -17 -17 -17 -18 -18 -19 -18 -18 -18 -17 -18 -17 -18 -19 -19 -19 -18 -18 -18 -19
-13 -13 -13 -13 -13 -14 -14 -15 -15 -15 -15 -15 -16 -16 -16 -17 -17 -17 -17 -17 -17 -17 -17 -17 -18 -18 -18 -18 -18 -18 -19 -19 -18 -18 -18 -17 -18 -19 -19 -19 -19 -19 -19 -18 -19
-13 -13 -13 -13 -14 -14 -14 -15 -15 -15 -16 -16 -15 -16 -16 -16 -17 -17 -17 -17 -17 -17 -17 -18 -18 -18 -18 -18 -19 -19 -18 -19 -18 -18 -17 -17 -18 -19 -19 -19 -19 -19 -19 -18 -17
-13 -13 -14 -14 -14 -14 -14 -15 -15 -15 -16 -15 -15 -16 -16 -16 -16 -17 -17 -17 -17 -18 -18 -18 -17 -17 -18 -18 -18 -18 -18 -18 -18 -18 -17 -17 -18 -19 -19 -19 -19 -18 -18 -18 -17
-13 -13 -14 -14 -14 -14 -14 -15 -15 -15 -16 -16 -16 -16 -16 -16 -17 -17 -17 -17 -17 -17 -17 -17 -18 -18 -18 -18 -18 -18 -18 -18 -18 -18 -18 -18 -18 -18 -19 -18 -18 -17 -16 -17 -16

GFSSW_500_temp_171.txt.gz
Temp
-7 -7 -7 -7 -7 -7 -7 -7 -7 -7 -7 -7 -7 -7 -6 -6 -6 -6 -6 -6 -6 -6 -6 -6 -6 -6 -7 -7 -6 -6 -6 -5 -5 -6 -6 -7 -6 -7 -7 -7 -6 -7 -7 -8 -9
-7 -7 -7 -7 -7 -7 -7 -7 -7 -7 -7 -7 -7 -7 -7 -6 -6 -6 -7 -7 -7 -7 -7 -7 -7 -7 -7 -7 -7 -7 -6 -6 -6 -6 -6 -6 -7 -8 -7 -7 -7 -8 -8 -8 -8
-7 -7 -7 -7 -7 -7 -7 -7 -7 -7 -7 -7 -7 -7 -7 -7 -7 -7 -7 -7 -7 -7 -7 -7 -7 -7 -7 -8 -8 -7 -7 -7 -7 -6 -6 -6 -6 -7 -7 -7 -8 -8 -8 -8 -8
-7 -7 -7 -7 -7 -7 -7 -7 -7 -7 -7 -6 -6 -6 -6 -7 -7 -7 -7 -8 -8 -8 -8 -8 -8 -8 -8 -9 -9 -8 -8 -8 -8 -8 -9 -8 -7 -7 -7 -7 -8 -8 -8 -8 -9
-7 -7 -7 -7 -7 -7 -7 -7 -7 -6 -6 -6 -6 -6 -7 -7 -8 -8 -8 -9 -9 -9 -9 -9 -9 -9 -9 -9 -9 -9 -9 -9 -9 -10 -10 -9 -9 -9 -8 -8 -8 -9 -9 -8 -8
-7 -7 -7 -7 -7 -7 -7 -7 -6 -6 -6 -6 -6 -7 -7 -8 -9 -9 -10 -10 -10 -10 -10 -10 -10 -10 -10 -11 -11 -11 -11 -13 -13 -13 -12 -11 -9 -9 -9 -10 -10 -9 -10 -9 -9
-7 -7 -7 -7 -7 -7 -7 -7 -6 -6 -6 -7 -7 -8 -8 -9 -10 -10 -11 -11 -11 -11 -11 -11 -11 -13 -14 -15 -15 -15 -15 -15 -16 -16 -15 -14 -12 -11 -10 -12 -12 -11 -11 -10 -9
-8 -8 -8 -7 -7 -7 -7 -7 -7 -7 -7 -7 -8 -9 -10 -11 -11 -11 -11 -11 -11 -11 -12 -13 -15 -15 -15 -16 -15 -15 -15 -15 -16 -16 -16 -16 -14 -14 -13 -13 -12 -12 -12 -11 -9
-8 -8 -8 -7 -7 -7 -7 -7 -7 -7 -8 -9 -10 -11 -12 -12 -12 -12 -12 -12 -12 -13 -14 -16 -15 -16 -16 -15 -16 -16 -15 -16 -16 -17 -17 -17 -16 -16 -15 -14 -13 -13 -12 -11 -10
-8 -8 -7 -7 -7 -7 -7 -7 -8 -9 -10 -12 -12 -13 -12 -13 -12 -12 -13 -13 -14 -16 -16 -16 -16 -16 -16 -16 -16 -16 -15 -16 -16 -17 -17 -17 -17 -16 -16 -16 -15 -13 -12 -12 -12
-8 -8 -7 -7 -7 -7 -7 -8 -10 -11 -11 -13 -13 -13 -13 -13 -13 -13 -14 -14 -15 -17 -17 -16 -16 -16 -16 -16 -16 -16 -16 -15 -17 -17 -16 -17 -16 -16 -16 -16 -16 -15 -13 -12 -12
-8 -8 -8 -7 -7 -8 -8 -9 -10 -12 -13 -13 -13 -13 -13 -13 -14 -14 -14 -15 -16 -17 -17 -17 -17 -16 -16 -16 -16 -16 -16 -16 -16 -17 -16 -16 -16 -16 -16 -16 -16 -16 -15 -13 -12
-8 -8 -8 -8 -8 -9 -10 -10 -12 -13 -14 -13 -13 -13 -13 -13 -13 -14 -15 -16 -18 -18 -18 -17 -17 -16 -16 -16 -16 -16 -16 -16 -16 -17 -16 -16 -15 -16 -17 -17 -17 -16 -16 -15 -12
-8 -8 -9 -9 -10 -10 -10 -12 -13 -14 -14 -14 -14 -13 -13 -13 -13 -14 -15 -17 -18 -18 -18 -17 -17 -16 -16 -16 -16 -15 -16 -16 -16 -16 -15 -17 -14 -16 -16 -17 -17 -17 -16 -16 -14
-8 -9 -10 -10 -11 -11 -12 -13 -13 -14 -14 -14 -14 -14 -14 -14 -14 -15 -16 -17 -17 -18 -17 -17 -17 -17 -16 -16 -16 -16 -16 -16 -16 -16 -16 -16 -17 -15 -17 -17 -17 -17 -17 -17 -15
-9 -10 -11 -11 -12 -12 -12 -13 -14 -14 -14 -15 -15 -15 -14 -15 -15 -16 -17 -17 -17 -17 -17 -16 -17 -16 -16 -16 -17 -17 -17 -17 -17 -17 -16 -17 -17 -14 -17 -17 -17 -17 -17 -17 -16
-10 -11 -11 -12 -12 -12 -12 -13 -14 -14 -14 -15 -15 -15 -15 -14 -15 -16 -17 -17 -18 -17 -17 -17 -17 -16 -16 -17 -17 -17 -17 -17 -17 -17 -16 -17 -17 -15 -17 -18 -17 -17 -17 -17 -17
-11 -12 -12 -12 -12 -12 -13 -13 -13 -14 -14 -15 -15 -15 -16 -15 -15 -16 -17 -17 -17 -17 -16 -16 -17 -17 -17 -18 -17 -18 -18 -18 -18 -17 -17 -17 -16 -16 -17 -17 -18 -17 -17 -17 -17
-12 -12 -12 -12 -13 -13 -13 -13 -13 -14 -14 -15 -15 -15 -15 -16 -16 -16 -17 -18 -17 -17 -17 -16 -16 -18 -17 -18 -17 -17 -18 -18 -18 -18 -18 -17 -17 -17 -17 -17 -18 -17 -17 -17 -17
-12 -12 -12 -13 -13 -13 -13 -13 -13 -14 -14 -15 -15 -15 -15 -15 -15 -16 -17 -17 -18 -18 -17 -17 -16 -18 -18 -18 -18 -17 -18 -18 -19 -18 -18 -17 -17 -17 -18 -18 -17 -17 -17 -17 -17
-13 -13 -13 -13 -13 -13 -13 -13 -14 -14 -14 -15 -16 -16 -15 -15 -15 -17 -17 -18 -18 -17 -17 -17 -17 -17 -17 -17 -18 -18 -18 -19 -19 -19 -19 -18 -17 -17 -18 -18 -18 -17 -17 -18 -17
-13 -13 -13 -13 -13 -13 -13 -14 -14 -14 -15 -15 -16 -16 -15 -16 -16 -17 -17 -17 -17 -17 -17 -17 -17 -17 -18 -18 -18 -18 -19 -19 -19 -19 -19 -19 -16 -19 -19 -18 -17 -17 -18 -18 -17
-13 -13 -13 -13 -13 -13 -14 -14 -14 -14 -15 -15 -16 -16 -16 -16 -16 -16 -16 -17 -17 -17 -17 -17 -17 -17 -18 -18 -18 -18 -19 -19 -19 -19 -19 -19 -17 -18 -19 -18 -18 -18 -17 -18 -18
-13 -13 -13 -13 -13 -13 -14 -14 -15 -15 -15 -15 -16 -16 -16 -16 -17 -17 -17 -17 -17 -17 -17 -17 -17 -18 -18 -18 -19 -18 -19 -19 -19 -19 -19 -18 -18 -19 -19 -18 -19 -19 -19 -18 -18
-13 -13 -13 -13 -14 -14 -14 -14 -14 -15 -15 -15 -16 -16 -16 -16 -16 -17 -17 -17 -18 -17 -17 -18 -17 -17 -18 -18 -19 -18 -18 -19 -19 -19 -19 -19 -18 -19 -18 -18 -18 -18 -18 -18 -18
-13 -13 -14 -14 -14 -14 -14 -14 -15 -15 -15 -15 -16 -16 -17 -17 -17 -16 -17 -17 -18 -18 -18 -18 -17 -17 -18 -19 -18 -18 -18 -19 -18 -19 -19 -19 -18 -18 -18 -18 -18 -19 -18 -19 -19
-14 -14 -14 -14 -14 -14 -14 -14 -15 -15 -15 -15 -16 -16 -17 -17 -17 -17 -17 -18 -18 -18 -18 -18 -18 -17 -17 -18 -18 -18 -18 -19 -19 -19 -19 -19 -19 -19 -19 -18 -18 -18 -19 -18 -19

GFSSW_500_temp_174.txt.gz
Temp
-7 -7 -7 -7 -7 -7 -7 -7 -7 -7 -7 -7 -7 -7 -7 -7 -7 -7 -6 -6 -6 -6 -6 -6 -6 -6 -7 -7 -6 -6 -6 -6 -6 -6 -6 -6 -7 -7 -7 -7 -6 -6 -7 -8 -8
-7 -7 -7 -7 -7 -7 -7 -7 -7 -7 -7 -7 -7 -7 -7 -6 -6 -6 -6 -6 -6 -6 -6 -7 -7 -7 -7 -7 -7 -7 -6 -6 -7 -6 -6 -6 -6 -7 -7 -7 -7 -6 -7 -7 -8
-7 -7 -7 -7 -7 -7 -7 -7 -7 -6 -6 -6 -6 -6 -6 -6 -6 -6 -6 -6 -7 -7 -7 -7 -8 -8 -8 -8 -8 -8 -8 -7 -7 -7 -7 -7 -7 -7 -8 -7 -7 -7 -7 -7 -8
-7 -7 -7 -7 -7 -7 -7 -7 -7 -6 -6 -6 -6 -6 -6 -6 -7 -7 -7 -7 -8 -8 -8 -9 -9 -9 -9 -9 -9 -9 -8 -8 -8 -8 -7 -7 -7 -8 -8 -8 -8 -8 -8 -7 -8
-7 -8 -7 -7 -7 -7 -7 -7 -7 -6 -6 -6 -6 -6 -6 -6 -7 -7 -8 -8 -10 -10 -10 -10 -10 -10 -10 -10 -10 -10 -10 -9 -9 -9 -8 -8 -7 -7 -8 -8 -8 -8 -9 -8 -7
-8 -8 -8 -8 -8 -7 -7 -7 -6 -6 -6 -6 -6 -7 -7 -7 -8 -9 -9 -10 -11 -11 -11 -11 -11 -11 -11 -11 -11 -11 -11 -11 -11 -11 -10 -9 -8 -8 -8 -9 -8 -9 -9 -9 -8
-8 -8 -8 -8 -7 -7 -7 -7 -6 -6 -6 -7 -7 -8 -8 -8 -9 -10 -11 -11 -12 -12 -12 -11 -12 -11 -11 -11 -12 -12 -12 -13 -13 -13 -13 -11 -10 -9 -9 -10 -10 -9 -10 -10 -9
-8 -8 -8 -8 -7 -7 -7 -7 -6 -7 -7 -7 -8 -8 -10 -11 -12 -12 -12 -12 -12 -12 -12 -12 -12 -12 -13 -14 -15 -15 -15 -15 -15 -15 -15 -15 -12 -13 -14 -13 -11 -11 -11 -11 -10
-8 -8 -8 -8 -7 -7 -7 -7 -7 -7 -8 -8 -9 -11 -11 -12 -13 -13 -13 -13 -13 -13 -13 -13 -13 -15 -15 -15 -15 -16 -15 -15 -16 -16 -16 -16 -14 -14 -15 -15 -14 -12 -12 -12 -11
-8 -8 -8 -8 -7 -7 -7 -8 -8 -8 -9 -10 -11 -12 -13 -13 -13 -13 -13 -14 -14 -14 -14 -14 -15 -16 -16 -16 -15 -16 -15 -15 -15 -17 -16 -15 -14 -15 -16 -16 -15 -14 -13 -13 -12
-8 -8 -8 -8 -8 -8 -8 -9 -10 -10 -10 -11 -12 -13 -13 -14 -14 -13 -14 -15 -14 -14 -15 -16 -17 -17 -17 -16 -16 -15 -15 -15 -16 -16 -15 -15 -14 -14 -15 -16 -16 -16 -15 -14 -13
-8 -8 -8 -8 -8 -9 -9 -10 -10 -11 -11 -12 -13 -13 -14 -14 -14 -14 -14 -14 -14 -15 -15 -16 -18 -19 -18 -17 -16 -16 -16 -15 -15 -16 -16 -15 -14 -14 -15 -15 -16 -16 -16 -15 -15
-8 -8 -8 -8 -9 -10 -10 -11 -11 -12 -12 -13 -13 -14 -14 -14 -14 -14 -14 -14 -14 -16 -17 -18 -19 -19 -18 -17 -16 -16 -16 -16 -15 -16 -16 -15 -14 -14 -15 -15 -16 -16 -16 -16 -16
-8 -9 -9 -9 -10 -11 -11 -11 -12 -12 -12 -13 -13 -14 -14 -14 -14 -14 -14 -14 -14 -16 -17 -18 -19 -18 -17 -17 -16 -16 -16 -16 -15 -15 -15 -16 -14 -15 -15 -16 -16 -16 -16 -16 -16
-9 -9 -9 -10 -11 -11 -12 -12 -12 -12 -13 -13 -14 -14 -15 -15 -14 -15 -15 -15 -15 -16 -17 -17 -18 -17 -17 -16 -16 -16 -16 -16 -16 -15 -15 -15 -16 -14 -15 -16 -16 -16 -16 -16 -16
-9 -10 -10 -11 -11 -11 -12 -12 -13 -13 -13 -14 -14 -15 -15 -15 -15 -15 -15 -16 -16 -17 -17 -17 -17 -17 -17 -17 -16 -16 -16 -16 -16 -16 -15 -16 -17 -14 -16 -16 -16 -15 -16 -17 -16
-9 -10 -11 -11 -12 -12 -12 -12 -13 -13 -13 -14 -14 -15 -15 -15 -15 -16 -15 -16 -17 -17 -18 -18 -18 -18 -17 -16 -16 -16 -16 -16 -16 -16 -16 -17 -16 -15 -16 -18 -16 -15 -16 -16 -17
-10 -10 -11 -12 -12 -12 -13 -13 -13 -13 -13 -14 -14 -14 -15 -15 -15 -15 -15 -16 -17 -17 -18 -17 -18 -18 -17 -17 -16 -17 -17 -17 -16 -16 -16 -16 -15 -16 -17 -17 -17 -17 -17 -16 -17
-10 -11 -12 -12 -12 -13 -13 -13 -13 -13 -14 -14 -14 -14 -15 -15 -15 -15 -15 -16 -17 -17 -18 -17 -17 -17 -16 -17 -16 -16 -18 -18 -18 -18 -17 -17 -16 -16 -17 -17 -18 -17 -17 -17 -17
-11 -11 -12 -12 -13 -13 -13 -13 -13 -13 -14 -14 -14 -15 -15 -15 -16 -16 -16 -16 -16 -17 -17 -17 -16 -17 -17 -17 -17 -17 -18 -18 -19 -19 -18 -17 -17 -17 -18 -18 -18 -17 -17 -17 -17
-11 -12 -12 -13 -13 -13 -13 -13 -14 -14 -14 -14 -15 -15 -16 -16 -16 -16 -17 -17 -17 -17 -17 -17 -16 -17 -18 -18 -18 -18 -18 -18 -19 -20 -19 -18 -17 -18 -19 -19 -18 -18 -17 -17 -17
-12 -12 -12 -13 -13 -13 -13 -13 -14 -14 -14 -15 -15 -15 -16 -16 -16 -17 -17 -17 -17 -17 -17 -17 -16 -17 -18 -18 -18 -18 -18 -19 -20 -19 -19 -19 -17 -18 -19 -19 -18 -19 -18 -18 -17
-13 -13 -13 -13 -13 -14 -14 -14 -14 -14 -14 -15 -15 -15 -15 -16 -16 -17 -17 -17 -17 -17 -18 -18 -17 -17 -18 -18 -18 -18 -19 -19 -19 -19 -19 -19 -17 -19 -19 -19 -18 -18 -18 -18 -17
-12 -13 -13 -13 -13 -13 -13 -14 -14 -14 -14 -15 -15 -16 -15 -16 -17 -17 -17 -17 -17 -17 -18 -18 -18 -18 -18 -18 -18 -19 -19 -19 -19 -19 -19 -19 -17 -19 -19 -18 -18 -17 -18 -18 -17
-12 -13 -13 -14 -14 -13 -13 -13 -14 -14 -14 -15 -15 -16 -16 -16 -16 -16 -16 -17 -18 -17 -18 -18 -18 -18 -18 -18 -19 -19 -19 -19 -19 -19 -19 -18 -18 -19 -19 -18 -18 -18 -18 -17 -17
-13 -13 -14 -14 -14 -14 -14 -14 -14 -14 -14 -14 -15 -16 -16 -16 -16 -16 -17 -17 -17 -18 -18 -19 -18 -18 -18 -18 -18 -18 -18 -18 -19 -19 -19 -19 -19 -19 -19 -19 -18 -18 -18 -17 -18
-13 -14 -14 -15 -15 -14 -14 -14 -14 -14 -15 -15 -15 -15 -16 -16 -17 -17 -17 -17 -17 -18 -18 -18 -18 -18 -18 -18 -18 -18 -18 -18 -19 -19 -19 -19 -19 -19 -19 -19 -19 -19 -18 -18 -17